[[{"header":{"parameterUnit":"m.s-1","parameterCategory":1,"la1":30.2991,"la2":30.254,"lo1":-89.0895,"lo2":-89.0444,"dy":0.0017,"dx":0.0017,"nx":28,"ny":28,"refTime":"2024-07-06T09:00:00:Z","depth":0,"parameterNumber":2,"parameterNumberName":"U-component_of_WINDS"},"data":[0,0,0,0,0,0,0,0,0,0,0,0,0,0,0,0,0,0,0,0,0,0,0,0,0,0,0,0,0,0,0,0,0,0,0,0,0,0,0,0,0,0,0,0,0,0,0,0,0,0,0,0,0,0,0,0,0,0,-1.047,-1.0469,0,-1.0459,-1.0459,-1.0459,-1.0439,-1.0439,-1.0438,-1.0438,-1.0427,-1.0427,-1.0427,0,0,0,0,0,0,0,0,0,0,0,0,0,-1.0471,-1.0471,-1.047,-1.0469,-1.0469,-1.0459,-1.0459,-1.0459,-1.0439,-1.0438,-1.0438,-1.0438,-1.0427,-1.0427,-1.0427,0,0,0,0,0,0,0,0,0,0,0,0,0,-1.0467,-1.0471,-1.047,-1.0458,-1.0457,-1.046,-1.0459,-1.0459,-1.0439,-1.0438,-1.0438,-1.0437,-1.0427,-1.0427,-1.0427,-1.044,0,0,-1.0428,-1.0428,0,0,0,0,0,0,0,0,-1.0467,-1.0467,-1.046,-1.0459,-1.0458,-1.045,-1.0456,-1.0453,-1.0439,-1.0446,-1.0438,-1.0437,-1.0435,-1.0435,-1.0434,-1.044,-1.044,-1.0428,-1.0428,-1.0428,-1.0428,0,0,0,0,0,0,0,-1.0467,-1.0467,-1.0466,-1.046,-1.0458,-1.0453,-1.0452,-1.0455,-1.0444,-1.0445,-1.0444,-1.0443,-1.0434,-1.0434,-1.0434,-1.0439,-1.0428,-1.0428,-1.0428,-1.0428,-1.0454,-1.0455,0,0,0,0,0,0,-1.0469,-1.0467,-1.0466,-1.0465,-1.0461,-1.0454,-1.0452,-1.0453,-1.0444,-1.0442,-1.0443,-1.0442,-1.0434,-1.0434,-1.0433,-1.0447,-1.0428,-1.0428,-1.0428,-1.0454,-1.0454,-1.0455,0,0,0,0,0,0,-1.0469,-1.0469,-1.0466,-1.0466,-1.0465,-1.0454,-1.0455,-1.0453,-1.0452,-1.0443,-1.044,-1.0445,-1.0434,-1.0433,-1.0439,-1.0446,-1.0428,-1.0428,-1.0453,-1.0454,-1.0455,-1.0474,0,0,0,0,0,0,-1.0469,-1.0469,-1.0474,-1.0466,-1.0465,-1.0472,-1.0456,-1.0453,-1.0453,-1.0451,-1.0443,-1.0442,-1.0433,-1.0438,-1.0439,-1.0446,-1.0429,-1.0452,-1.0453,-1.0454,-1.0473,-1.0476,-1.0478,0,0,0,0,0,-1.047,-1.048,-1.0475,-1.0475,-1.0471,-1.0472,-1.0472,-1.0462,-1.0454,-1.0458,-1.0452,-1.0442,-1.0446,-1.0439,-1.0439,-1.0447,-1.0452,-1.0453,-1.0454,-1.0472,-1.0475,-1.0478,0,0,0,0,0,0,-1.049,-1.0479,-1.0473,-1.0481,-1.0478,-1.0469,-1.0474,-1.0466,-1.0465,-1.0463,-1.0451,-1.0449,-1.0456,-1.0452,-1.0445,-1.0458,-1.0447,-1.0448,-1.046,-1.0464,-1.0466,-1.0466,-1.0429,0,0,0,0,0,-1.0495,-1.0497,-1.0488,-1.0496,-1.0495,-1.0485,-1.0485,-1.0478,-1.0474,-1.0472,-1.0466,-1.0463,-1.0463,-1.0463,-1.0463,-1.0473,-1.047,-1.0478,-1.0481,-1.0483,-1.0484,-1.0488,-1.0491,-1.046,-1.046,-1.0459,0,0,-1.0506,-1.0501,-1.0503,-1.05,-1.0497,-1.0499,-1.0484,-1.0487,-1.0488,-1.0473,-1.0477,-1.0473,-1.0468,-1.0475,-1.0478,-1.0472,-1.0492,-1.0485,-1.0487,-1.0486,-1.049,-1.0493,-1.0495,-1.046,-1.046,-1.046,0,0,-1.0527,-1.0524,-1.053,-1.0527,-1.0522,-1.0515,-1.0517,-1.0509,-1.0506,-1.051,-1.0498,-1.05,-1.0501,-1.0497,-1.0496,-1.0516,-1.0506,-1.0516,-1.053,-1.0534,-1.0536,-1.0538,-1.0544,-1.0546,-1.0518,-1.0518,-1.0518,0,-1.0542,-1.0544,-1.0534,-1.0538,-1.0537,-1.0523,-1.0529,-1.0526,-1.0522,-1.0521,-1.0515,-1.0515,-1.0511,-1.0517,-1.0522,-1.0521,-1.0522,-1.0516,-1.0537,-1.0538,-1.054,-1.0546,-1.0548,-1.0519,-1.0519,-1.0519,-1.0518,0,-1.0562,-1.0564,-1.0569,-1.0565,-1.0564,-1.0569,-1.0559,-1.056,-1.0553,-1.0547,-1.0552,-1.0546,-1.0544,-1.0546,-1.0539,-1.055,-1.0547,-1.0539,-1.0527,-1.0545,-1.0549,-1.0551,-1.052,-1.052,-1.052,-1.0519,0,0,-1.0594,-1.0584,-1.0586,-1.0583,-1.0577,-1.0578,-1.0582,-1.058,-1.0581,-1.0578,-1.0581,-1.0582,-1.0574,-1.0573,-1.0566,-1.0569,-1.0584,-1.0561,-1.056,-1.0564,-1.0595,-1.06,-1.0603,-1.0578,-1.0579,-1.0579,-1.0595,0,-1.0612,-1.0618,-1.0609,-1.0617,-1.0618,-1.0606,-1.0609,-1.0606,-1.06,-1.0601,-1.0595,-1.0595,-1.0586,-1.0585,-1.0588,-1.0581,-1.059,-1.058,-1.0579,-1.058,-1.0579,-1.0605,-1.0611,-1.0626,-1.0597,-1.0597,-1.0597,0,-1.0634,-1.0632,-1.064,-1.0633,-1.0633,-1.0636,-1.0633,-1.0634,-1.063,-1.0625,-1.0624,-1.0615,-1.0618,-1.0608,-1.0612,-1.0605,-1.0605,-1.0602,-1.0602,-1.06,-1.0588,-1.0603,-1.0631,-1.0632,-1.0601,-1.06,-1.06,0,-1.0655,-1.0655,-1.0659,-1.0658,-1.0649,-1.0652,-1.0649,-1.0644,-1.0643,-1.0641,-1.064,-1.0638,-1.0637,-1.0636,-1.0627,-1.062,-1.0631,-1.062,-1.0627,-1.0627,-1.0629,-1.0628,-1.0655,-1.0631,-1.0631,-1.0631,-1.0631,0,-1.0675,-1.068,-1.0668,-1.0671,-1.0676,-1.0666,-1.0671,-1.0667,-1.0662,-1.0664,-1.0653,-1.0655,-1.0644,-1.0644,-1.0637,-1.064,-1.064,-1.0637,-1.0634,-1.0637,-1.0637,-1.0635,-1.0633,-1.0631,-1.0631,-1.0631,-1.0631,0,-1.0699,-1.0691,-1.0695,-1.0687,-1.0685,-1.0689,-1.0682,-1.0684,-1.0678,-1.068,-1.068,-1.0671,-1.067,-1.0662,-1.066,-1.0655,-1.0661,-1.0658,-1.0662,-1.0661,-1.0667,-1.0666,-1.0692,-1.0695,-1.067,-1.0671,-1.0671,0,-1.0711,-1.0715,-1.0707,-1.0707,-1.0705,-1.0705,-1.0704,-1.0695,-1.0694,-1.069,-1.0692,-1.0691,-1.0689,-1.0689,-1.0682,-1.068,-1.0676,-1.0685,-1.0675,-1.0677,-1.0674,-1.0674,-1.0673,-1.0687,-1.0687,-1.0687,-1.0688,0,-1.0734,-1.073,-1.0729,-1.0727,-1.0727,-1.0725,-1.0722,-1.0723,-1.0712,-1.0712,-1.0712,-1.071,-1.0708,-1.0707,-1.0704,-1.07,-1.0692,-1.0691,-1.0692,-1.0694,-1.0696,-1.0693,-1.0666,-1.069,-1.069,-1.069,-1.0689,-1.0689,-1.0751,-1.0754,-1.0749,-1.0748,-1.0745,-1.0743,-1.0744,-1.0739,-1.0738,-1.0735,-1.073,-1.073,-1.0725,-1.072,-1.0718,-1.0717,-1.0712,-1.0714,-1.0715,-1.0715,-1.0716,-1.0697,-1.0717,-1.0717,-1.0717,-1.0717,-1.0717,0,-1.0772,-1.0769,-1.0768,-1.0765,-1.0764,-1.0757,-1.0754,-1.0754,-1.0754,-1.0751,-1.0749,-1.0748,-1.0747,-1.074,-1.0738,-1.0739,-1.0735,-1.0739,-1.0738,-1.0737,-1.0721,-1.0719,-1.0742,-1.0742,-1.0742,-1.0742,-1.0742,-1.0742,-1.0783,-1.0786,-1.0782,-1.0783,-1.0779,-1.0779,-1.0778,-1.0776,-1.0773,-1.0772,-1.0771,-1.0767,-1.0762,-1.0759,-1.0757,-1.0755,-1.0754,-1.0759,-1.0756,-1.0741,-1.0738,-1.0736,-1.0734,-1.0759,-1.0759,-1.0771,-1.0771,-1.0772]},{"header":{"parameterUnit":"m.s-1","parameterCategory":1,"la1":30.2991,"la2":30.254,"lo1":-89.0895,"lo2":-89.0444,"dy":0.0017,"dx":0.0017,"nx":28,"ny":28,"refTime":"2024-07-06T09:00:00:Z","depth":0,"parameterNumber":3,"parameterNumberName":"V-component_of_WINDS"},"data":[0,0,0,0,0,0,0,0,0,0,0,0,0,0,0,0,0,0,0,0,0,0,0,0,0,0,0,0,0,0,0,0,0,0,0,0,0,0,0,0,0,0,0,0,0,0,0,0,0,0,0,0,0,0,0,0,0,0,0.5206,0.5206,0,0.516,0.5159,0.5159,0.5112,0.5111,0.511,0.511,0.506,0.506,0.5059,0,0,0,0,0,0,0,0,0,0,0,0,0,0.5254,0.5253,0.5206,0.5206,0.5205,0.516,0.5159,0.5159,0.5112,0.5111,0.511,0.5109,0.5061,0.506,0.5059,0,0,0,0,0,0,0,0,0,0,0,0,0,0.5223,0.5253,0.5207,0.5176,0.5173,0.516,0.5159,0.5159,0.5112,0.5111,0.511,0.5109,0.5061,0.506,0.5059,0.5071,0,0,0.5056,0.5055,0,0,0,0,0,0,0,0,0.5225,0.5221,0.5181,0.5178,0.5175,0.5141,0.5158,0.5129,0.5112,0.5135,0.511,0.5109,0.5088,0.5084,0.5078,0.5069,0.5067,0.5055,0.5055,0.5054,0.5054,0,0,0,0,0,0,0,0.5227,0.5223,0.5188,0.5181,0.5177,0.5165,0.516,0.5152,0.5117,0.5133,0.5129,0.5125,0.5086,0.5079,0.5076,0.5066,0.5056,0.5055,0.5054,0.5053,0.5067,0.5068,0,0,0,0,0,0,0.5234,0.5225,0.5189,0.5187,0.5198,0.5165,0.5159,0.5153,0.5117,0.5111,0.5126,0.5123,0.5081,0.5078,0.5074,0.5088,0.5054,0.5053,0.5053,0.5066,0.5067,0.5068,0,0,0,0,0,0,0.5235,0.5231,0.5191,0.5205,0.5199,0.5165,0.5158,0.5152,0.5145,0.5112,0.5105,0.5125,0.508,0.5076,0.5073,0.5085,0.5053,0.5052,0.5065,0.5066,0.5067,0.5114,0,0,0,0,0,0,0.5237,0.5232,0.5236,0.5205,0.5198,0.5191,0.5159,0.5152,0.5144,0.5139,0.5109,0.5103,0.5079,0.5075,0.5072,0.5083,0.5051,0.5063,0.5065,0.5067,0.5111,0.5117,0.5122,0,0,0,0,0,0.5238,0.5251,0.5237,0.5233,0.5203,0.5192,0.5188,0.516,0.5145,0.5149,0.5128,0.5104,0.5084,0.5075,0.5071,0.5082,0.5062,0.5065,0.5067,0.5109,0.5116,0.5122,0,0,0,0,0,0,0.5283,0.5246,0.523,0.5233,0.5216,0.5184,0.5188,0.5168,0.5155,0.5151,0.5117,0.5111,0.5112,0.5096,0.5087,0.5093,0.507,0.5072,0.5103,0.511,0.5115,0.5119,0.505,0,0,0,0,0,0.5293,0.5287,0.5255,0.526,0.5253,0.5222,0.5216,0.5196,0.5177,0.517,0.5148,0.513,0.512,0.5114,0.5102,0.5109,0.5102,0.5115,0.512,0.5124,0.5126,0.513,0.5135,0.5075,0.5075,0.5075,0,0,0.5314,0.5293,0.5291,0.5269,0.5253,0.5248,0.5216,0.5212,0.5207,0.5169,0.5165,0.5149,0.5126,0.5129,0.5128,0.5116,0.5141,0.5127,0.5131,0.513,0.5133,0.5138,0.5144,0.5077,0.5077,0.5076,0,0,0.5349,0.5333,0.5336,0.5322,0.5299,0.5279,0.528,0.5251,0.5239,0.5235,0.5206,0.52,0.5183,0.5169,0.5159,0.5191,0.517,0.5188,0.5216,0.522,0.5225,0.5229,0.5241,0.5246,0.519,0.519,0.519,0,0.5378,0.5369,0.534,0.5338,0.5329,0.5295,0.5298,0.5285,0.526,0.5255,0.5241,0.522,0.5202,0.5201,0.5209,0.5202,0.5203,0.5192,0.5226,0.523,0.5233,0.5245,0.5249,0.5193,0.5193,0.5192,0.5192,0,0.5406,0.54,0.5405,0.5383,0.5375,0.5375,0.5347,0.5342,0.5323,0.5305,0.5301,0.5279,0.5264,0.5262,0.5243,0.5258,0.5252,0.5233,0.5209,0.5242,0.5252,0.5256,0.5196,0.5196,0.5195,0.5194,0,0,0.5467,0.543,0.5432,0.5423,0.5396,0.5391,0.539,0.5376,0.5373,0.5356,0.5355,0.5342,0.5325,0.5315,0.5294,0.5297,0.5325,0.5278,0.5277,0.5288,0.5342,0.5358,0.5363,0.5311,0.5311,0.5312,0.5345,0,0.5499,0.5496,0.547,0.5475,0.547,0.5438,0.5437,0.5421,0.5404,0.5397,0.5377,0.5369,0.5346,0.534,0.5342,0.5322,0.5336,0.5319,0.531,0.531,0.5317,0.5368,0.5383,0.5415,0.5348,0.5349,0.5349,0,0.5535,0.5522,0.5527,0.5501,0.5498,0.5498,0.5484,0.5477,0.5458,0.5446,0.5435,0.5412,0.541,0.5387,0.5384,0.5373,0.5368,0.5357,0.5358,0.5356,0.5332,0.5369,0.5425,0.543,0.5355,0.5355,0.5354,0,0.558,0.5565,0.5566,0.5558,0.5528,0.5529,0.5517,0.5497,0.549,0.5477,0.5473,0.5459,0.5452,0.5442,0.5417,0.5403,0.5417,0.5392,0.5407,0.5407,0.5411,0.5412,0.5468,0.5407,0.5407,0.5407,0.5407,0,0.5618,0.5623,0.5586,0.5587,0.5591,0.5561,0.5566,0.555,0.5533,0.553,0.5501,0.5499,0.5465,0.5459,0.5439,0.544,0.5437,0.5427,0.5422,0.543,0.5432,0.5426,0.5424,0.5408,0.5408,0.5407,0.5407,0,0.567,0.5646,0.5645,0.5617,0.561,0.5615,0.5591,0.5591,0.5572,0.5569,0.5567,0.5537,0.5529,0.5503,0.5487,0.5474,0.5482,0.5471,0.5488,0.5485,0.5502,0.5501,0.5558,0.5564,0.5498,0.5499,0.55,0,0.5696,0.5699,0.5672,0.5669,0.5658,0.5652,0.5646,0.5617,0.5612,0.5591,0.5594,0.5583,0.5574,0.5562,0.5539,0.5528,0.5517,0.5538,0.5515,0.5524,0.5519,0.5519,0.552,0.5543,0.5544,0.5545,0.5545,0,0.5746,0.5734,0.5726,0.5714,0.5708,0.5697,0.5684,0.5683,0.5651,0.5646,0.5638,0.5631,0.5616,0.5607,0.5592,0.5579,0.5557,0.5553,0.5556,0.5565,0.5575,0.5571,0.5503,0.5552,0.5551,0.555,0.555,0.555,0.5786,0.5787,0.5769,0.5762,0.575,0.5739,0.5738,0.572,0.5713,0.5699,0.5683,0.5677,0.5659,0.5637,0.5626,0.5621,0.5609,0.5613,0.5614,0.5616,0.5621,0.5576,0.5618,0.5618,0.5618,0.5617,0.5617,0,0.5835,0.5822,0.5815,0.58,0.5794,0.5775,0.576,0.5757,0.5752,0.5738,0.5729,0.5721,0.5712,0.5689,0.5678,0.5678,0.5668,0.5676,0.5676,0.5674,0.5631,0.563,0.5685,0.5685,0.5685,0.5685,0.5685,0.5685,0.5859,0.5861,0.5848,0.5844,0.5831,0.5826,0.5819,0.5809,0.5798,0.579,0.5783,0.5768,0.5751,0.5738,0.5729,0.5723,0.5721,0.5732,0.5723,0.5683,0.5677,0.5671,0.567,0.5732,0.5732,0.5766,0.5766,0.5767]}]]